Time,TemperatureF,DewpointF,PressureIn,WindDirection,WindDirectionDegrees,WindSpeedMPH,WindSpeedGustMPH,Humidity,HourlyPrecipIn,Conditions,Clouds,dailyrainin,SoftwareType,DateUTC
2013-11-27 00:01:00,44.1,0.0,30.11,WSW,248,1.1,1.6,0,0.00,,,0.00,WUHU216HW,2013-11-27 08:01:00,
2013-11-27 00:06:00,44.1,0.0,30.11,WSW,248,1.8,1.8,0,0.00,,,0.00,WUHU216HW,2013-11-27 08:06:00,
2013-11-27 00:11:00,44.3,0.0,30.11,WSW,248,1.1,1.8,0,0.00,,,0.00,WUHU216HW,2013-11-27 08:11:00,
2013-11-27 00:16:00,44.1,0.0,30.10,WSW,248,0.2,1.8,0,0.00,,,0.00,WUHU216HW,2013-11-27 08:16:00,
2013-11-27 00:21:00,44.1,0.0,30.10,WSW,248,0.2,1.1,0,0.00,,,0.00,WUHU216HW,2013-11-27 08:21:00,
2013-11-27 00:26:00,43.9,0.0,30.10,WSW,248,0.0,0.7,0,0.00,,,0.00,WUHU216HW,2013-11-27 08:26:00,
2013-11-27 00:31:00,43.9,0.0,30.10,WSW,248,0.4,0.7,0,0.00,,,0.00,WUHU216HW,2013-11-27 08:31:00,
2013-11-27 00:36:00,43.9,0.0,30.10,WSW,248,0.4,0.9,0,0.00,,,0.00,WUHU216HW,2013-11-27 08:36:00,
2013-11-27 00:41:00,43.9,0.0,30.10,WSW,248,0.0,0.9,0,0.00,,,0.00,WUHU216HW,2013-11-27 08:41:00,
2013-11-27 00:46:00,43.9,0.0,30.10,WSW,248,0.0,0.4,0,0.00,,,0.00,WUHU216HW,2013-11-27 08:46:00,
2013-11-27 00:51:00,43.9,0.0,30.10,WSW,248,0.7,1.1,0,0.00,,,0.00,WUHU216HW,2013-11-27 08:51:00,
2013-11-27 00:56:00,43.9,0.0,30.10,WSW,248,0.9,1.1,0,0.00,,,0.00,WUHU216HW,2013-11-27 08:56:00,
2013-11-27 01:01:00,43.7,0.0,30.10,WSW,248,0.7,1.1,0,0.00,,,0.00,WUHU216HW,2013-11-27 09:01:00,
2013-11-27 01:06:00,43.7,0.0,30.09,WSW,248,0.7,1.1,0,0.00,,,0.00,WUHU216HW,2013-11-27 09:06:00,
2013-11-27 01:11:00,43.7,0.0,30.09,WSW,248,0.0,0.9,0,0.00,,,0.00,WUHU216HW,2013-11-27 09:11:00,
2013-11-27 01:16:00,43.6,0.0,30.09,WSW,248,0.0,0.9,0,0.00,,,0.00,WUHU216HW,2013-11-27 09:16:00,
2013-11-27 01:21:00,43.6,0.0,30.09,WSW,248,0.4,0.9,0,0.00,,,0.00,WUHU216HW,2013-11-27 09:21:00,
2013-11-27 01:26:00,43.6,0.0,30.09,WSW,248,1.8,1.8,0,0.00,,,0.00,WUHU216HW,2013-11-27 09:26:00,
2013-11-27 01:31:00,43.6,0.0,30.09,WSW,248,1.6,1.8,0,0.00,,,0.00,WUHU216HW,2013-11-27 09:31:00,
2013-11-27 01:36:00,43.6,0.0,30.09,WSW,248,0.9,1.8,0,0.00,,,0.00,WUHU216HW,2013-11-27 09:36:00,
2013-11-27 01:41:00,43.6,0.0,30.09,WSW,248,0.9,1.6,0,0.00,,,0.00,WUHU216HW,2013-11-27 09:41:00,
2013-11-27 01:46:00,43.6,0.0,30.09,WSW,248,1.1,1.3,0,0.00,,,0.00,WUHU216HW,2013-11-27 09:46:00,
2013-11-27 01:51:00,43.6,0.0,30.08,WSW,248,1.1,1.3,0,0.00,,,0.00,WUHU216HW,2013-11-27 09:51:00,
2013-11-27 01:56:00,43.6,0.0,30.08,WSW,248,1.1,1.3,0,0.00,,,0.00,WUHU216HW,2013-11-27 09:56:00,
2013-11-27 02:01:00,43.6,0.0,30.08,WSW,248,1.1,1.3,0,0.00,,,0.00,WUHU216HW,2013-11-27 10:01:00,
2013-11-27 02:06:00,43.6,0.0,30.08,WSW,248,1.1,1.1,0,0.00,,,0.00,WUHU216HW,2013-11-27 10:06:00,
2013-11-27 02:11:00,43.6,0.0,30.08,WSW,248,1.3,1.6,0,0.00,,,0.00,WUHU216HW,2013-11-27 10:11:00,
2013-11-27 02:16:00,43.4,0.0,30.08,SW,225,1.1,1.8,0,0.00,,,0.00,WUHU216HW,2013-11-27 10:16:00,
2013-11-27 02:21:00,43.4,0.0,30.08,SW,225,1.3,1.8,0,0.00,,,0.00,WUHU216HW,2013-11-27 10:21:00,
2013-11-27 02:26:00,43.4,0.0,30.08,West,270,1.8,2.0,0,0.00,,,0.00,WUHU216HW,2013-11-27 10:26:00,
2013-11-27 02:31:00,43.4,0.0,30.08,WSW,248,0.4,2.0,0,0.00,,,0.00,WUHU216HW,2013-11-27 10:31:00,
2013-11-27 02:36:00,43.4,0.0,30.08,WSW,248,0.0,1.8,0,0.00,,,0.00,WUHU216HW,2013-11-27 10:36:00,
2013-11-27 02:41:00,43.2,0.0,30.08,WSW,248,0.0,0.7,0,0.00,,,0.00,WUHU216HW,2013-11-27 10:41:00,
2013-11-27 02:46:00,43.4,0.0,30.08,WSW,248,0.4,0.7,0,0.00,,,0.00,WUHU216HW,2013-11-27 10:46:00,
2013-11-27 02:51:00,43.2,0.0,30.08,WSW,248,0.4,0.7,0,0.00,,,0.00,WUHU216HW,2013-11-27 10:51:00,
2013-11-27 02:56:00,43.2,0.0,30.08,WSW,248,1.1,1.1,0,0.00,,,0.00,WUHU216HW,2013-11-27 10:56:00,
2013-11-27 03:01:00,43.2,0.0,30.08,WSW,248,0.9,1.1,0,0.00,,,0.00,WUHU216HW,2013-11-27 11:01:00,
2013-11-27 03:06:00,43.2,0.0,30.08,SW,225,1.3,1.6,0,0.00,,,0.00,WUHU216HW,2013-11-27 11:06:00,
2013-11-27 03:11:00,43.2,0.0,30.07,SW,225,1.6,1.8,0,0.00,,,0.00,WUHU216HW,2013-11-27 11:11:00,
2013-11-27 03:16:00,43.2,0.0,30.07,SW,225,1.8,1.8,0,0.00,,,0.00,WUHU216HW,2013-11-27 11:16:00,
2013-11-27 03:21:00,43.2,0.0,30.07,WSW,248,1.6,1.8,0,0.00,,,0.00,WUHU216HW,2013-11-27 11:21:00,
2013-11-27 03:26:00,43.2,0.0,30.07,WSW,248,1.1,1.8,0,0.00,,,0.00,WUHU216HW,2013-11-27 11:26:00,
2013-11-27 03:31:00,43.0,0.0,30.07,WSW,248,1.3,1.6,0,0.00,,,0.00,WUHU216HW,2013-11-27 11:31:00,
2013-11-27 03:36:00,43.0,0.0,30.07,WSW,248,1.1,1.6,0,0.00,,,0.00,WUHU216HW,2013-11-27 11:36:00,
2013-11-27 03:41:00,43.0,0.0,30.06,WSW,248,1.1,1.6,0,0.00,,,0.00,WUHU216HW,2013-11-27 11:41:00,
2013-11-27 03:46:00,43.0,0.0,30.06,WSW,248,0.4,1.6,0,0.00,,,0.00,WUHU216HW,2013-11-27 11:46:00,
2013-11-27 03:51:00,42.8,0.0,30.06,WSW,248,0.7,1.1,0,0.00,,,0.00,WUHU216HW,2013-11-27 11:51:00,
2013-11-27 03:56:00,42.8,0.0,30.06,WSW,248,0.9,0.9,0,0.00,,,0.00,WUHU216HW,2013-11-27 11:56:00,
2013-11-27 04:01:00,42.8,0.0,30.06,WSW,248,0.7,0.9,0,0.00,,,0.00,WUHU216HW,2013-11-27 12:01:00,
2013-11-27 04:06:00,42.8,0.0,30.06,WSW,248,1.3,1.3,0,0.00,,,0.00,WUHU216HW,2013-11-27 12:06:00,
2013-11-27 04:11:00,42.8,0.0,30.06,WSW,248,0.9,1.3,0,0.00,,,0.00,WUHU216HW,2013-11-27 12:11:00,
2013-11-27 04:16:00,42.7,0.0,30.06,WSW,248,0.7,1.3,0,0.00,,,0.00,WUHU216HW,2013-11-27 12:16:00,
2013-11-27 04:21:00,42.7,0.0,30.06,WSW,248,1.1,1.1,0,0.00,,,0.00,WUHU216HW,2013-11-27 12:21:00,
2013-11-27 04:26:00,42.7,0.0,30.05,WSW,248,1.1,1.3,0,0.00,,,0.00,WUHU216HW,2013-11-27 12:26:00,
2013-11-27 04:31:00,42.7,0.0,30.05,WSW,248,0.7,1.3,0,0.00,,,0.00,WUHU216HW,2013-11-27 12:31:00,
2013-11-27 04:36:00,42.5,0.0,30.05,WSW,248,0.4,1.1,0,0.00,,,0.00,WUHU216HW,2013-11-27 12:36:00,
2013-11-27 04:41:00,42.5,0.0,30.05,WSW,248,0.0,0.9,0,0.00,,,0.00,WUHU216HW,2013-11-27 12:41:00,
2013-11-27 04:46:00,42.5,0.0,30.04,WSW,248,0.0,0.4,0,0.00,,,0.00,WUHU216HW,2013-11-27 12:46:00,
2013-11-27 04:51:00,42.5,0.0,30.04,WSW,248,0.0,0.4,0,0.00,,,0.00,WUHU216HW,2013-11-27 12:51:00,
2013-11-27 04:56:00,42.5,0.0,30.04,WSW,248,0.0,0.4,0,0.00,,,0.00,WUHU216HW,2013-11-27 12:56:00,
2013-11-27 05:01:00,42.5,0.0,30.04,WSW,248,1.1,1.1,0,0.00,,,0.00,WUHU216HW,2013-11-27 13:01:00,
2013-11-27 05:06:00,42.5,0.0,30.04,SW,225,1.1,1.3,0,0.00,,,0.00,WUHU216HW,2013-11-27 13:06:00,
2013-11-27 05:11:00,42.3,0.0,30.04,SW,225,0.7,1.3,0,0.00,,,0.00,WUHU216HW,2013-11-27 13:11:00,
2013-11-27 05:16:00,42.3,0.0,30.04,SW,225,0.4,1.1,0,0.00,,,0.00,WUHU216HW,2013-11-27 13:16:00,
2013-11-27 05:21:00,42.3,0.0,30.04,SW,225,0.2,0.7,0,0.00,,,0.00,WUHU216HW,2013-11-27 13:21:00,
2013-11-27 05:26:00,42.3,0.0,30.05,SW,225,0.0,1.1,0,0.00,,,0.00,WUHU216HW,2013-11-27 13:26:00,
2013-11-27 05:31:00,42.3,0.0,30.05,SW,225,0.9,1.1,0,0.00,,,0.00,WUHU216HW,2013-11-27 13:31:00,
2013-11-27 05:36:00,42.1,0.0,30.04,WSW,248,1.1,1.3,0,0.00,,,0.00,WUHU216HW,2013-11-27 13:36:00,
2013-11-27 05:41:00,42.1,0.0,30.04,WSW,248,0.9,1.3,0,0.00,,,0.00,WUHU216HW,2013-11-27 13:41:00,
2013-11-27 05:46:00,42.1,0.0,30.04,WSW,248,0.7,1.6,0,0.00,,,0.00,WUHU216HW,2013-11-27 13:46:00,
2013-11-27 05:51:00,42.1,0.0,30.04,West,270,0.7,1.6,0,0.00,,,0.00,WUHU216HW,2013-11-27 13:51:00,
2013-11-27 05:56:00,41.9,0.0,30.04,West,270,0.9,1.3,0,0.00,,,0.00,WUHU216HW,2013-11-27 13:56:00,
2013-11-27 06:01:00,41.9,0.0,30.04,WSW,248,0.7,1.1,0,0.00,,,0.00,WUHU216HW,2013-11-27 14:01:00,
2013-11-27 06:06:00,41.8,0.0,30.04,WSW,248,0.0,1.1,0,0.00,,,0.00,WUHU216HW,2013-11-27 14:06:00,
2013-11-27 06:11:00,41.8,0.0,30.04,WSW,248,0.0,1.1,0,0.00,,,0.00,WUHU216HW,2013-11-27 14:11:00,
2013-11-27 06:16:00,41.8,0.0,30.04,ESE,113,0.2,0.7,0,0.00,,,0.00,WUHU216HW,2013-11-27 14:16:00,
2013-11-27 06:21:00,41.8,0.0,30.03,ESE,113,0.0,0.7,0,0.00,,,0.00,WUHU216HW,2013-11-27 14:21:00,
2013-11-27 06:26:00,41.8,0.0,30.03,SW,225,0.4,1.1,0,0.00,,,0.00,WUHU216HW,2013-11-27 14:26:00,
2013-11-27 06:31:00,41.8,0.0,30.03,SW,225,0.4,1.1,0,0.00,,,0.00,WUHU216HW,2013-11-27 14:31:00,
2013-11-27 06:36:00,41.8,0.0,30.03,SSW,203,0.0,0.4,0,0.00,,,0.00,WUHU216HW,2013-11-27 14:36:00,
2013-11-27 06:41:00,41.8,0.0,30.03,SW,225,0.2,0.9,0,0.00,,,0.00,WUHU216HW,2013-11-27 14:41:00,
2013-11-27 06:46:00,41.8,0.0,30.03,SW,225,0.4,0.9,0,0.00,,,0.00,WUHU216HW,2013-11-27 14:46:00,
2013-11-27 06:51:00,41.8,0.0,30.03,SW,225,0.0,0.4,0,0.00,,,0.00,WUHU216HW,2013-11-27 14:51:00,
2013-11-27 06:56:00,41.8,0.0,30.03,SSW,203,0.4,0.4,0,0.00,,,0.00,WUHU216HW,2013-11-27 14:56:00,
2013-11-27 07:01:00,41.8,0.0,30.03,SW,225,1.1,1.1,0,0.00,,,0.00,WUHU216HW,2013-11-27 15:01:00,
2013-11-27 07:06:00,41.8,0.0,30.03,WSW,248,0.0,1.1,0,0.00,,,0.00,WUHU216HW,2013-11-27 15:06:00,
2013-11-27 07:11:00,41.8,0.0,30.03,East,90,0.0,1.1,0,0.00,,,0.00,WUHU216HW,2013-11-27 15:11:00,
2013-11-27 07:16:00,41.8,0.0,30.03,ESE,113,0.0,1.1,0,0.00,,,0.00,WUHU216HW,2013-11-27 15:16:00,
2013-11-27 07:21:00,41.8,0.0,30.02,NE,45,0.2,1.1,0,0.00,,,0.00,WUHU216HW,2013-11-27 15:21:00,
2013-11-27 07:26:00,41.8,0.0,30.02,East,90,0.9,1.1,0,0.00,,,0.00,WUHU216HW,2013-11-27 15:26:00,
2013-11-27 07:31:00,41.8,0.0,30.02,ENE,68,0.9,1.1,0,0.00,,,0.00,WUHU216HW,2013-11-27 15:31:00,
2013-11-27 07:36:00,41.8,0.0,30.02,ENE,68,0.9,1.1,0,0.00,,,0.00,WUHU216HW,2013-11-27 15:36:00,
2013-11-27 07:41:00,41.8,0.0,30.02,North,0,3.1,4.0,0,0.00,,,0.00,WUHU216HW,2013-11-27 15:41:00,
2013-11-27 07:46:00,41.9,0.0,30.02,ENE,68,0.7,4.0,0,0.00,,,0.00,WUHU216HW,2013-11-27 15:46:00,
2013-11-27 07:51:00,42.1,0.0,30.03,NE,45,0.9,2.5,0,0.00,,,0.00,WUHU216HW,2013-11-27 15:51:00,
2013-11-27 07:56:00,42.3,0.0,30.03,North,0,4.0,4.0,0,0.00,,,0.00,WUHU216HW,2013-11-27 15:56:00,
2013-11-27 08:01:00,42.5,0.0,30.03,East,90,2.0,4.0,0,0.00,,,0.00,WUHU216HW,2013-11-27 16:01:00,
2013-11-27 08:06:00,42.7,0.0,30.03,NE,45,2.5,4.0,0,0.00,,,0.00,WUHU216HW,2013-11-27 16:06:00,
2013-11-27 08:11:00,42.8,0.0,30.03,NW,315,0.4,4.0,0,0.00,,,0.00,WUHU216HW,2013-11-27 16:11:00,
2013-11-27 08:16:00,42.8,0.0,30.03,NNE,23,1.1,4.0,0,0.00,,,0.00,WUHU216HW,2013-11-27 16:16:00,
2013-11-27 08:21:00,43.2,0.0,30.03,ENE,68,1.8,2.5,0,0.00,,,0.00,WUHU216HW,2013-11-27 16:21:00,
2013-11-27 08:26:00,43.4,0.0,30.04,NNE,23,0.4,2.5,0,0.00,,,0.00,WUHU216HW,2013-11-27 16:26:00,
2013-11-27 08:31:00,43.6,0.0,30.03,NNE,23,1.6,2.9,0,0.00,,,0.00,WUHU216HW,2013-11-27 16:31:00,
2013-11-27 08:36:00,43.7,0.0,30.03,ENE,68,3.4,3.4,0,0.00,,,0.00,WUHU216HW,2013-11-27 16:36:00,
2013-11-27 08:41:00,43.9,0.0,30.03,North,0,0.7,3.4,0,0.00,,,0.00,WUHU216HW,2013-11-27 16:41:00,
2013-11-27 08:46:00,44.1,0.0,30.03,NNE,23,0.7,3.4,0,0.00,,,0.00,WUHU216HW,2013-11-27 16:46:00,
2013-11-27 08:51:00,44.1,0.0,30.03,East,90,2.0,3.4,0,0.00,,,0.00,WUHU216HW,2013-11-27 16:51:00,
2013-11-27 08:56:00,44.3,0.0,30.03,North,0,0.4,4.3,0,0.00,,,0.00,WUHU216HW,2013-11-27 16:56:00,
2013-11-27 09:01:00,44.3,0.0,30.03,NNW,338,1.1,4.3,0,0.00,,,0.00,WUHU216HW,2013-11-27 17:01:00,
2013-11-27 09:06:00,44.3,0.0,30.03,NW,315,0.9,3.1,0,0.00,,,0.00,WUHU216HW,2013-11-27 17:06:00,
2013-11-27 09:11:00,44.5,0.0,30.04,East,90,2.5,3.1,0,0.00,,,0.00,WUHU216HW,2013-11-27 17:11:00,
2013-11-27 09:16:00,44.6,0.0,30.04,NE,45,0.0,3.1,0,0.00,,,0.00,WUHU216HW,2013-11-27 17:16:00,
2013-11-27 09:21:00,44.6,0.0,30.04,ENE,68,1.1,3.1,0,0.00,,,0.00,WUHU216HW,2013-11-27 17:21:00,
2013-11-27 09:26:00,44.6,0.0,30.03,ENE,68,1.3,1.6,0,0.00,,,0.00,WUHU216HW,2013-11-27 17:26:00,
2013-11-27 09:31:00,44.8,0.0,30.03,ENE,68,1.1,3.1,0,0.00,,,0.00,WUHU216HW,2013-11-27 17:31:00,
2013-11-27 09:36:00,45.0,0.0,30.03,East,90,3.4,3.4,0,0.00,,,0.00,WUHU216HW,2013-11-27 17:36:00,
2013-11-27 09:41:00,45.0,0.0,30.03,North,0,4.3,4.3,0,0.00,,,0.00,WUHU216HW,2013-11-27 17:41:00,
2013-11-27 09:46:00,45.0,0.0,30.03,WNW,293,1.1,4.3,0,0.00,,,0.00,WUHU216HW,2013-11-27 17:46:00,
2013-11-27 09:51:00,45.2,0.0,30.04,NE,45,0.9,4.3,0,0.00,,,0.00,WUHU216HW,2013-11-27 17:51:00,
2013-11-27 09:56:00,45.2,0.0,30.04,ENE,68,1.3,2.0,0,0.00,,,0.00,WUHU216HW,2013-11-27 17:56:00,
2013-11-27 10:01:00,45.4,0.0,30.04,NE,45,0.0,2.0,0,0.00,,,0.00,WUHU216HW,2013-11-27 18:01:00,
2013-11-27 10:06:00,45.4,0.0,30.04,North,0,0.4,2.0,0,0.00,,,0.00,WUHU216HW,2013-11-27 18:06:00,
2013-11-27 10:11:00,45.5,0.0,30.04,West,270,2.5,2.5,0,0.00,,,0.00,WUHU216HW,2013-11-27 18:11:00,
2013-11-27 10:16:00,45.7,0.0,30.04,East,90,1.8,2.5,0,0.00,,,0.00,WUHU216HW,2013-11-27 18:16:00,
2013-11-27 10:21:00,45.9,0.0,30.03,NNE,23,2.5,3.4,0,0.00,,,0.00,WUHU216HW,2013-11-27 18:21:00,
2013-11-27 10:26:00,46.3,0.0,30.03,NNE,23,4.7,5.4,0,0.00,,,0.00,WUHU216HW,2013-11-27 18:26:00,
2013-11-27 10:31:00,46.4,0.0,30.03,NNE,23,3.8,5.4,0,0.00,,,0.00,WUHU216HW,2013-11-27 18:31:00,
2013-11-27 10:36:00,46.6,0.0,30.03,North,0,3.1,3.8,0,0.00,,,0.00,WUHU216HW,2013-11-27 18:36:00,
2013-11-27 10:41:00,46.6,0.0,30.03,NNW,338,0.4,3.8,0,0.00,,,0.00,WUHU216HW,2013-11-27 18:41:00,
2013-11-27 10:46:00,46.6,0.0,30.03,NE,45,1.3,3.1,0,0.00,,,0.00,WUHU216HW,2013-11-27 18:46:00,
2013-11-27 10:51:00,46.6,0.0,30.03,West,270,2.0,2.0,0,0.00,,,0.00,WUHU216HW,2013-11-27 18:51:00,
2013-11-27 10:56:00,46.8,0.0,30.03,NNE,23,2.5,3.4,0,0.00,,,0.00,WUHU216HW,2013-11-27 18:56:00,
2013-11-27 11:01:00,46.8,0.0,30.03,ENE,68,4.5,4.5,0,0.00,,,0.00,WUHU216HW,2013-11-27 19:01:00,
2013-11-27 11:06:00,47.2,0.0,30.03,NNE,23,2.9,4.7,0,0.00,,,0.00,WUHU216HW,2013-11-27 19:06:00,
2013-11-27 11:11:00,47.3,0.0,30.03,NNE,23,5.4,5.4,0,0.00,,,0.00,WUHU216HW,2013-11-27 19:11:00,
2013-11-27 11:16:00,47.3,0.0,30.03,NNW,338,1.8,5.4,0,0.00,,,0.00,WUHU216HW,2013-11-27 19:16:00,
2013-11-27 11:21:00,47.3,0.0,30.02,NNE,23,3.6,5.4,0,0.00,,,0.00,WUHU216HW,2013-11-27 19:21:00,
2013-11-27 11:26:00,47.3,0.0,30.02,NE,45,2.2,3.6,0,0.00,,,0.00,WUHU216HW,2013-11-27 19:26:00,
2013-11-27 11:31:00,47.3,0.0,30.02,West,270,0.4,3.6,0,0.00,,,0.00,WUHU216HW,2013-11-27 19:31:00,
2013-11-27 11:36:00,47.3,0.0,30.02,North,0,2.5,2.5,0,0.00,,,0.00,WUHU216HW,2013-11-27 19:36:00,
2013-11-27 11:41:00,47.5,0.0,30.02,North,0,1.3,2.7,0,0.00,,,0.00,WUHU216HW,2013-11-27 19:41:00,
2013-11-27 11:46:00,47.5,0.0,30.02,East,90,2.5,2.7,0,0.00,,,0.00,WUHU216HW,2013-11-27 19:46:00,
2013-11-27 11:51:00,47.7,0.0,30.02,North,0,0.4,2.5,0,0.00,,,0.00,WUHU216HW,2013-11-27 19:51:00,
2013-11-27 11:56:00,47.9,0.0,30.01,NE,45,1.8,2.7,0,0.00,,,0.00,WUHU216HW,2013-11-27 19:56:00,
2013-11-27 12:01:00,47.9,0.0,30.01,NNW,338,0.2,2.7,0,0.00,,,0.00,WUHU216HW,2013-11-27 20:01:00,
2013-11-27 12:06:00,48.1,0.0,30.01,North,0,0.2,2.5,0,0.00,,,0.00,WUHU216HW,2013-11-27 20:06:00,
2013-11-27 12:11:00,48.1,0.0,30.01,NNW,338,1.1,2.2,0,0.00,,,0.00,WUHU216HW,2013-11-27 20:11:00,
2013-11-27 12:16:00,48.2,0.0,30.00,East,90,1.8,2.2,0,0.00,,,0.00,WUHU216HW,2013-11-27 20:16:00,
2013-11-27 12:21:00,48.2,0.0,30.00,ENE,68,1.6,3.1,0,0.00,,,0.00,WUHU216HW,2013-11-27 20:21:00,
2013-11-27 12:26:00,48.4,0.0,30.00,ENE,68,2.7,3.4,0,0.00,,,0.00,WUHU216HW,2013-11-27 20:26:00,
2013-11-27 12:31:00,48.6,0.0,30.00,NE,45,2.5,3.4,0,0.00,,,0.00,WUHU216HW,2013-11-27 20:31:00,
2013-11-27 12:36:00,48.8,0.0,30.00,NE,45,3.6,3.6,0,0.00,,,0.00,WUHU216HW,2013-11-27 20:36:00,
2013-11-27 12:41:00,49.0,0.0,29.99,NE,45,3.4,3.6,0,0.00,,,0.00,WUHU216HW,2013-11-27 20:41:00,
2013-11-27 12:46:00,49.3,0.0,29.99,ESE,113,2.9,4.5,0,0.00,,,0.00,WUHU216HW,2013-11-27 20:46:00,
2013-11-27 12:51:00,49.3,0.0,29.99,ENE,68,2.5,4.5,0,0.00,,,0.00,WUHU216HW,2013-11-27 20:51:00,
2013-11-27 12:56:00,49.3,0.0,29.99,NNE,23,2.0,4.0,0,0.00,,,0.00,WUHU216HW,2013-11-27 20:56:00,
2013-11-27 13:01:00,49.5,0.0,29.99,NE,45,2.5,4.0,0,0.00,,,0.00,WUHU216HW,2013-11-27 21:01:00,
2013-11-27 13:06:00,49.7,0.0,30.00,SE,135,0.4,4.0,0,0.00,,,0.00,WUHU216HW,2013-11-27 21:06:00,
2013-11-27 13:11:00,49.7,0.0,29.99,NE,45,1.1,2.5,0,0.00,,,0.00,WUHU216HW,2013-11-27 21:11:00,
2013-11-27 13:16:00,49.7,0.0,30.00,ESE,113,1.1,1.6,0,0.00,,,0.00,WUHU216HW,2013-11-27 21:16:00,
2013-11-27 13:21:00,49.9,0.0,29.99,NE,45,0.9,1.6,0,0.00,,,0.00,WUHU216HW,2013-11-27 21:21:00,
2013-11-27 13:26:00,50.0,0.0,30.00,North,0,1.3,1.3,0,0.00,,,0.00,WUHU216HW,2013-11-27 21:26:00,
2013-11-27 13:31:00,50.0,0.0,29.99,East,90,2.0,2.0,0,0.00,,,0.00,WUHU216HW,2013-11-27 21:31:00,
2013-11-27 13:36:00,50.2,0.0,29.99,NE,45,1.6,2.0,0,0.00,,,0.00,WUHU216HW,2013-11-27 21:36:00,
2013-11-27 13:41:00,50.2,0.0,29.99,East,90,1.3,2.5,0,0.00,,,0.00,WUHU216HW,2013-11-27 21:41:00,
2013-11-27 13:46:00,50.0,0.0,29.99,ENE,68,0.7,2.5,0,0.00,,,0.00,WUHU216HW,2013-11-27 21:46:00,
2013-11-27 13:51:00,50.0,0.0,29.99,NNE,23,1.3,2.0,0,0.00,,,0.00,WUHU216HW,2013-11-27 21:51:00,
2013-11-27 13:56:00,50.0,0.0,29.99,East,90,2.2,3.1,0,0.00,,,0.00,WUHU216HW,2013-11-27 21:56:00,
2013-11-27 14:01:00,50.0,0.0,29.99,North,0,1.8,4.0,0,0.00,,,0.00,WUHU216HW,2013-11-27 22:01:00,
2013-11-27 14:06:00,49.9,0.0,29.98,NE,45,1.1,4.0,0,0.00,,,0.00,WUHU216HW,2013-11-27 22:06:00,
2013-11-27 14:11:00,49.7,0.0,29.98,ENE,68,2.0,3.6,0,0.00,,,0.00,WUHU216HW,2013-11-27 22:11:00,
2013-11-27 14:16:00,49.7,0.0,29.98,ENE,68,1.1,4.0,0,0.00,,,0.00,WUHU216HW,2013-11-27 22:16:00,
2013-11-27 14:21:00,49.5,0.0,29.98,East,90,1.8,4.0,0,0.00,,,0.00,WUHU216HW,2013-11-27 22:21:00,
2013-11-27 14:26:00,49.3,0.0,29.98,ENE,68,2.5,3.4,0,0.00,,,0.00,WUHU216HW,2013-11-27 22:26:00,
2013-11-27 14:30:00,49.3,0.0,29.98,North,0,2.5,3.4,0,0.00,,,0.00,WUHU216HW,2013-11-27 22:30:00,
2013-11-27 14:35:00,49.3,0.0,29.98,NNW,338,1.8,2.5,0,0.00,,,0.00,WUHU216HW,2013-11-27 22:35:00,
2013-11-27 14:40:00,49.1,0.0,29.98,ENE,68,0.7,3.6,0,0.00,,,0.00,WUHU216HW,2013-11-27 22:40:00,
2013-11-27 14:45:00,49.1,0.0,29.98,North,0,1.3,3.6,0,0.00,,,0.00,WUHU216HW,2013-11-27 22:45:00,
2013-11-27 14:50:00,49.1,0.0,29.98,North,0,1.3,2.9,0,0.00,,,0.00,WUHU216HW,2013-11-27 22:50:00,
2013-11-27 14:55:00,49.3,0.0,29.98,NNW,338,0.4,2.9,0,0.00,,,0.00,WUHU216HW,2013-11-27 22:55:00,
2013-11-27 15:00:00,49.1,0.0,29.98,NNW,338,1.1,2.0,0,0.00,,,0.00,WUHU216HW,2013-11-27 23:00:00,
2013-11-27 15:05:00,49.1,0.0,29.98,NNE,23,2.0,2.9,0,0.00,,,0.00,WUHU216HW,2013-11-27 23:05:00,
2013-11-27 15:10:00,49.1,0.0,29.98,NNE,23,1.6,2.9,0,0.00,,,0.00,WUHU216HW,2013-11-27 23:10:00,
2013-11-27 15:15:00,49.1,0.0,29.98,NNE,23,0.4,2.0,0,0.00,,,0.00,WUHU216HW,2013-11-27 23:15:00,
2013-11-27 15:20:00,49.0,0.0,29.98,North,0,0.9,1.8,0,0.00,,,0.00,WUHU216HW,2013-11-27 23:20:00,
2013-11-27 15:25:00,49.0,0.0,29.98,East,90,1.3,1.3,0,0.00,,,0.00,WUHU216HW,2013-11-27 23:25:00,
2013-11-27 15:30:00,48.8,0.0,29.98,ENE,68,0.0,1.3,0,0.00,,,0.00,WUHU216HW,2013-11-27 23:30:00,
2013-11-27 15:35:00,48.6,0.0,29.98,ENE,68,0.7,1.3,0,0.00,,,0.00,WUHU216HW,2013-11-27 23:35:00,
2013-11-27 15:40:00,48.4,0.0,29.98,ESE,113,0.7,0.7,0,0.00,,,0.00,WUHU216HW,2013-11-27 23:40:00,
2013-11-27 15:45:00,48.2,0.0,29.98,SSE,158,0.0,0.7,0,0.00,,,0.00,WUHU216HW,2013-11-27 23:45:00,
2013-11-27 15:50:00,48.2,0.0,29.98,SSE,158,0.4,0.7,0,0.00,,,0.00,WUHU216HW,2013-11-27 23:50:00,
2013-11-27 15:55:00,47.9,0.0,29.98,SSE,158,0.0,0.4,0,0.00,,,0.00,WUHU216HW,2013-11-27 23:55:00,
2013-11-27 16:00:00,47.7,0.0,29.98,WSW,248,0.4,0.7,0,0.00,,,0.00,WUHU216HW,2013-11-28 00:00:00,
2013-11-27 16:05:00,47.5,0.0,29.98,WSW,248,1.1,1.1,0,0.00,,,0.00,WUHU216HW,2013-11-28 00:05:00,
2013-11-27 16:10:00,47.3,0.0,29.98,WSW,248,0.2,1.1,0,0.00,,,0.00,WUHU216HW,2013-11-28 00:10:00,
2013-11-27 16:15:00,47.2,0.0,29.98,WSW,248,0.2,1.1,0,0.00,,,0.00,WUHU216HW,2013-11-28 00:15:00,
2013-11-27 16:20:00,47.0,0.0,29.98,WSW,248,0.0,0.7,0,0.00,,,0.00,WUHU216HW,2013-11-28 00:20:00,
2013-11-27 16:25:00,46.6,0.0,29.98,NW,315,0.0,0.2,0,0.00,,,0.00,WUHU216HW,2013-11-28 00:25:00,
2013-11-27 16:30:00,46.6,0.0,29.98,NW,315,0.4,0.4,0,0.00,,,0.00,WUHU216HW,2013-11-28 00:30:00,
2013-11-27 16:35:00,46.4,0.0,29.98,NW,315,0.4,0.4,0,0.00,,,0.00,WUHU216HW,2013-11-28 00:35:00,
2013-11-27 16:40:00,46.3,0.0,29.98,West,270,0.7,0.9,0,0.00,,,0.00,WUHU216HW,2013-11-28 00:40:00,
2013-11-27 16:45:00,46.1,0.0,29.98,WSW,248,1.1,1.3,0,0.00,,,0.00,WUHU216HW,2013-11-28 00:45:00,
2013-11-27 16:50:00,45.9,0.0,29.99,WSW,248,1.1,1.3,0,0.00,,,0.00,WUHU216HW,2013-11-28 00:50:00,
2013-11-27 16:55:00,45.7,0.0,29.99,WSW,248,1.3,1.6,0,0.00,,,0.00,WUHU216HW,2013-11-28 00:55:00,
2013-11-27 17:00:00,45.4,0.0,29.98,WSW,248,0.7,1.8,0,0.00,,,0.00,WUHU216HW,2013-11-28 01:00:00,
2013-11-27 17:05:00,45.0,0.0,29.98,WSW,248,0.9,1.8,0,0.00,,,0.00,WUHU216HW,2013-11-28 01:05:00,
2013-11-27 17:10:00,45.0,0.0,29.98,West,270,0.0,1.3,0,0.00,,,0.00,WUHU216HW,2013-11-28 01:10:00,
2013-11-27 17:15:00,44.8,0.0,29.98,West,270,0.0,1.1,0,0.00,,,0.00,WUHU216HW,2013-11-28 01:15:00,
2013-11-27 17:20:00,44.6,0.0,29.98,West,270,0.0,0.4,0,0.00,,,0.00,WUHU216HW,2013-11-28 01:20:00,
2013-11-27 17:25:00,44.6,0.0,29.98,WSW,248,1.1,1.1,0,0.00,,,0.00,WUHU216HW,2013-11-28 01:25:00,
2013-11-27 17:30:00,44.5,0.0,29.98,WSW,248,0.7,1.1,0,0.00,,,0.00,WUHU216HW,2013-11-28 01:30:00,
2013-11-27 17:35:00,44.5,0.0,29.98,WSW,248,0.9,1.1,0,0.00,,,0.00,WUHU216HW,2013-11-28 01:35:00,
2013-11-27 17:40:00,44.3,0.0,29.98,WSW,248,1.1,1.6,0,0.00,,,0.00,WUHU216HW,2013-11-28 01:40:00,
2013-11-27 17:45:00,44.1,0.0,29.99,West,270,0.0,1.8,0,0.00,,,0.00,WUHU216HW,2013-11-28 01:45:00,
2013-11-27 17:50:00,44.1,0.0,29.99,West,270,1.1,1.8,0,0.00,,,0.00,WUHU216HW,2013-11-28 01:50:00,
2013-11-27 17:55:00,43.9,0.0,29.99,WSW,248,1.6,1.6,0,0.00,,,0.00,WUHU216HW,2013-11-28 01:55:00,
2013-11-27 18:00:00,43.9,0.0,30.00,WSW,248,0.7,1.8,0,0.00,,,0.00,WUHU216HW,2013-11-28 02:00:00,
2013-11-27 18:05:00,43.7,0.0,29.99,West,270,1.1,1.8,0,0.00,,,0.00,WUHU216HW,2013-11-28 02:05:00,
2013-11-27 18:10:00,43.6,0.0,30.00,West,270,1.6,1.6,0,0.00,,,0.00,WUHU216HW,2013-11-28 02:10:00,
2013-11-27 18:15:00,43.6,0.0,30.00,West,270,0.2,1.6,0,0.00,,,0.00,WUHU216HW,2013-11-28 02:15:00,
2013-11-27 18:20:00,43.6,0.0,30.00,West,270,0.0,1.6,0,0.00,,,0.00,WUHU216HW,2013-11-28 02:20:00,
2013-11-27 18:25:00,43.4,0.0,29.99,ENE,68,0.2,0.4,0,0.00,,,0.00,WUHU216HW,2013-11-28 02:25:00,
2013-11-27 18:30:00,43.4,0.0,29.99,ENE,68,0.0,0.4,0,0.00,,,0.00,WUHU216HW,2013-11-28 02:30:00,
2013-11-27 18:35:00,43.6,0.0,30.00,ENE,68,0.0,0.2,0,0.00,,,0.00,WUHU216HW,2013-11-28 02:35:00,
2013-11-27 18:40:00,43.4,0.0,30.00,ENE,68,0.0,0.2,0,0.00,,,0.00,WUHU216HW,2013-11-28 02:40:00,
2013-11-27 18:45:00,43.4,0.0,30.00,NNE,23,0.2,0.7,0,0.00,,,0.00,WUHU216HW,2013-11-28 02:45:00,
2013-11-27 18:50:00,43.4,0.0,30.00,SW,225,0.0,1.1,0,0.00,,,0.00,WUHU216HW,2013-11-28 02:50:00,
2013-11-27 18:55:00,43.2,0.0,30.00,SSW,203,0.4,1.1,0,0.00,,,0.00,WUHU216HW,2013-11-28 02:55:00,
2013-11-27 19:00:00,43.2,0.0,30.00,ENE,68,0.2,1.3,0,0.00,,,0.00,WUHU216HW,2013-11-28 03:00:00,
2013-11-27 19:05:00,43.2,0.0,30.00,ENE,68,1.3,1.8,0,0.00,,,0.00,WUHU216HW,2013-11-28 03:05:00,
2013-11-27 19:10:00,43.2,0.0,30.00,ENE,68,1.6,2.0,0,0.00,,,0.00,WUHU216HW,2013-11-28 03:10:00,
2013-11-27 19:15:00,43.2,0.0,30.00,ENE,68,0.4,2.0,0,0.00,,,0.00,WUHU216HW,2013-11-28 03:15:00,
2013-11-27 19:20:00,43.2,0.0,30.00,West,270,0.7,1.6,0,0.00,,,0.00,WUHU216HW,2013-11-28 03:20:00,
2013-11-27 19:25:00,43.2,0.0,30.00,WSW,248,1.1,1.1,0,0.00,,,0.00,WUHU216HW,2013-11-28 03:25:00,
2013-11-27 19:30:00,43.0,0.0,30.00,WNW,293,0.4,1.3,0,0.00,,,0.00,WUHU216HW,2013-11-28 03:30:00,
2013-11-27 19:35:00,42.8,0.0,30.00,West,270,0.4,1.3,0,0.00,,,0.00,WUHU216HW,2013-11-28 03:35:00,
2013-11-27 19:40:00,42.8,0.0,30.00,WSW,248,1.1,1.1,0,0.00,,,0.00,WUHU216HW,2013-11-28 03:40:00,
2013-11-27 19:45:00,42.7,0.0,30.01,West,270,0.7,1.1,0,0.00,,,0.00,WUHU216HW,2013-11-28 03:45:00,
2013-11-27 19:50:00,42.7,0.0,30.01,West,270,0.0,1.1,0,0.00,,,0.00,WUHU216HW,2013-11-28 03:50:00,
2013-11-27 19:55:00,42.7,0.0,30.01,West,270,0.0,1.1,0,0.00,,,0.00,WUHU216HW,2013-11-28 03:55:00,
2013-11-27 20:00:00,42.5,0.0,30.01,West,270,1.1,1.1,0,0.00,,,0.00,WUHU216HW,2013-11-28 04:00:00,
2013-11-27 20:05:00,42.5,0.0,30.01,West,270,0.4,1.1,0,0.00,,,0.00,WUHU216HW,2013-11-28 04:05:00,
2013-11-27 20:10:00,42.3,0.0,30.01,West,270,0.4,1.1,0,0.00,,,0.00,WUHU216HW,2013-11-28 04:10:00,
2013-11-27 20:15:00,42.3,0.0,30.01,West,270,0.4,0.7,0,0.00,,,0.00,WUHU216HW,2013-11-28 04:15:00,
2013-11-27 20:20:00,42.1,0.0,30.01,West,270,1.1,1.3,0,0.00,,,0.00,WUHU216HW,2013-11-28 04:20:00,
2013-11-27 20:25:00,42.1,0.0,30.01,WSW,248,0.7,1.6,0,0.00,,,0.00,WUHU216HW,2013-11-28 04:25:00,
2013-11-27 20:30:00,41.9,0.0,30.01,SW,225,1.8,1.8,0,0.00,,,0.00,WUHU216HW,2013-11-28 04:30:00,
2013-11-27 20:35:00,41.8,0.0,30.01,WSW,248,0.4,1.8,0,0.00,,,0.00,WUHU216HW,2013-11-28 04:35:00,
2013-11-27 20:40:00,41.6,0.0,30.01,WSW,248,0.0,1.8,0,0.00,,,0.00,WUHU216HW,2013-11-28 04:40:00,
2013-11-27 20:45:00,41.6,0.0,30.01,WSW,248,0.0,0.7,0,0.00,,,0.00,WUHU216HW,2013-11-28 04:45:00,
2013-11-27 20:50:00,41.4,0.0,30.01,WSW,248,0.4,0.7,0,0.00,,,0.00,WUHU216HW,2013-11-28 04:50:00,
2013-11-27 20:55:00,41.4,0.0,30.01,WSW,248,0.4,1.1,0,0.00,,,0.00,WUHU216HW,2013-11-28 04:55:00,
2013-11-27 21:00:00,41.4,0.0,30.01,WSW,248,0.4,1.1,0,0.00,,,0.00,WUHU216HW,2013-11-28 05:00:00,
2013-11-27 21:01:00,41.2,0.0,30.01,WSW,248,0.4,1.1,0,0.00,,,0.00,WUHU216HW,2013-11-28 05:01:00,
2013-11-27 21:06:00,41.2,0.0,30.01,WSW,248,0.9,1.1,0,0.00,,,0.00,WUHU216HW,2013-11-28 05:06:00,
2013-11-27 21:11:00,41.0,0.0,30.01,WSW,248,1.6,1.6,0,0.00,,,0.00,WUHU216HW,2013-11-28 05:11:00,
2013-11-27 21:16:00,41.0,0.0,30.02,WSW,248,1.6,2.5,0,0.00,,,0.00,WUHU216HW,2013-11-28 05:16:00,
2013-11-27 21:21:00,40.7,0.0,30.02,WSW,248,2.0,2.5,0,0.00,,,0.00,WUHU216HW,2013-11-28 05:21:00,
2013-11-27 21:26:00,40.5,0.0,30.02,WSW,248,1.3,2.2,0,0.00,,,0.00,WUHU216HW,2013-11-28 05:26:00,
2013-11-27 21:31:00,40.3,0.0,30.02,SW,225,1.8,2.2,0,0.00,,,0.00,WUHU216HW,2013-11-28 05:31:00,
2013-11-27 21:36:00,40.3,0.0,30.02,WSW,248,1.3,2.0,0,0.00,,,0.00,WUHU216HW,2013-11-28 05:36:00,
2013-11-27 21:41:00,40.1,0.0,30.02,WSW,248,1.1,1.8,0,0.00,,,0.00,WUHU216HW,2013-11-28 05:41:00,
2013-11-27 21:46:00,40.1,0.0,30.02,WSW,248,1.3,1.6,0,0.00,,,0.00,WUHU216HW,2013-11-28 05:46:00,
2013-11-27 21:51:00,40.0,0.0,30.02,SW,225,1.1,2.0,0,0.00,,,0.00,WUHU216HW,2013-11-28 05:51:00,
2013-11-27 21:56:00,40.0,0.0,30.02,SW,225,1.1,2.0,0,0.00,,,0.00,WUHU216HW,2013-11-28 05:56:00,
2013-11-27 22:01:00,40.0,0.0,30.02,SW,225,1.3,1.3,0,0.00,,,0.00,WUHU216HW,2013-11-28 06:01:00,
2013-11-27 22:06:00,40.0,0.0,30.02,SW,225,2.0,2.0,0,0.00,,,0.00,WUHU216HW,2013-11-28 06:06:00,
2013-11-27 22:11:00,39.8,0.0,30.02,SW,225,1.1,2.0,0,0.00,,,0.00,WUHU216HW,2013-11-28 06:11:00,
2013-11-27 22:16:00,39.8,0.0,30.02,SW,225,1.1,2.0,0,0.00,,,0.00,WUHU216HW,2013-11-28 06:16:00,
2013-11-27 22:21:00,39.6,0.0,30.03,SW,225,1.6,1.6,0,0.00,,,0.00,WUHU216HW,2013-11-28 06:21:00,
2013-11-27 22:26:00,39.4,0.0,30.03,WSW,248,1.1,1.8,0,0.00,,,0.00,WUHU216HW,2013-11-28 06:26:00,
2013-11-27 22:31:00,39.4,0.0,30.02,WSW,248,2.0,2.0,0,0.00,,,0.00,WUHU216HW,2013-11-28 06:31:00,
2013-11-27 22:36:00,39.2,0.0,30.03,SSW,203,1.1,2.0,0,0.00,,,0.00,WUHU216HW,2013-11-28 06:36:00,
2013-11-27 22:41:00,39.2,0.0,30.03,SW,225,0.7,1.8,0,0.00,,,0.00,WUHU216HW,2013-11-28 06:41:00,
2013-11-27 22:46:00,39.1,0.0,30.03,WSW,248,1.8,1.8,0,0.00,,,0.00,WUHU216HW,2013-11-28 06:46:00,
2013-11-27 22:51:00,38.9,0.0,30.03,WSW,248,1.3,2.5,0,0.00,,,0.00,WUHU216HW,2013-11-28 06:51:00,
2013-11-27 22:56:00,38.9,0.0,30.03,SW,225,1.3,2.5,0,0.00,,,0.00,WUHU216HW,2013-11-28 06:56:00,
2013-11-27 23:01:00,38.7,0.0,30.02,SW,225,1.1,1.8,0,0.00,,,0.00,WUHU216HW,2013-11-28 07:01:00,
2013-11-27 23:06:00,38.7,0.0,30.02,SW,225,1.3,1.8,0,0.00,,,0.00,WUHU216HW,2013-11-28 07:06:00,
2013-11-27 23:11:00,38.7,0.0,30.03,WSW,248,1.8,2.0,0,0.00,,,0.00,WUHU216HW,2013-11-28 07:11:00,
2013-11-27 23:16:00,38.5,0.0,30.03,SW,225,2.2,2.2,0,0.00,,,0.00,WUHU216HW,2013-11-28 07:16:00,
2013-11-27 23:21:00,38.5,0.0,30.03,SW,225,1.1,2.2,0,0.00,,,0.00,WUHU216HW,2013-11-28 07:21:00,
2013-11-27 23:26:00,38.3,0.0,30.03,SW,225,1.1,2.2,0,0.00,,,0.00,WUHU216HW,2013-11-28 07:26:00,
2013-11-27 23:31:00,38.2,0.0,30.03,SW,225,1.8,2.0,0,0.00,,,0.00,WUHU216HW,2013-11-28 07:31:00,
2013-11-27 23:36:00,38.0,0.0,30.03,SW,225,1.3,2.0,0,0.00,,,0.00,WUHU216HW,2013-11-28 07:36:00,
2013-11-27 23:41:00,37.8,0.0,30.04,SW,225,1.8,2.0,0,0.00,,,0.00,WUHU216HW,2013-11-28 07:41:00,
2013-11-27 23:46:00,37.8,0.0,30.04,WSW,248,1.8,2.0,0,0.00,,,0.00,WUHU216HW,2013-11-28 07:46:00,
2013-11-27 23:51:00,37.8,0.0,30.04,SW,225,2.0,2.2,0,0.00,,,0.00,WUHU216HW,2013-11-28 07:51:00,
2013-11-27 23:56:00,37.6,0.0,30.04,WSW,248,2.0,2.2,0,0.00,,,0.00,WUHU216HW,2013-11-28 07:56:00,